User: anonymous   Login
Location: Unspecified
(0.0000°N, 0.0000°E)
Time: 14:15:37
(UTC+00:00)
Language:

P76-5 - Orbit

View from above orbital plane
View from above orbital plane
View from above satellite
View from above satellite

Ground track
Ground track

The orbit data is extracted from the following two-line orbital elements,

1  8860U 76047A   18267.93293269 -.00000014 +00000-0 +37751-4 0  9996
2  8860 099.7093 023.2597 0041572 342.1776 128.5788 13.67587541110556
Epoch (UTC): 24 September 2018 22:23:25
Eccentricity: 0.0041572
inclination: 99.7093°
perigee height: 977 km
apogee height: 1039 km
right ascension of ascending node: 23.2597°
argument of perigee: 342.1776°
revolutions per day: 13.67587541
mean anomaly at epoch: 128.5788°
orbit number at epoch: 11055

The dashed part of the orbit path shows where the satellite is in the earth's shadow,  

DLR